Weather History for Oakland, MD

Change the Weather History Date:

Tuesday, October 8, 2013

  Actual Average (KMGW) Record (KMGW)
Temperature  
Mean Temperature 50 °F 57 °F  
Max Temperature 60 °F 67 °F 88 °F (2007)
Min Temperature 41 °F 46 °F 27 °F (1953)
Degree Days  
Heating Degree Days 14 9  
Month to date heating degree days 63  
Since 1 July heating degree days 160  
Cooling Degree Days 0 1  
Month to date cooling degree days 8  
Year to date cooling degree days 809  
Moisture  
Dew Point 39 °F    
Average Humidity 66    
Maximum Humidity 100    
Minimum Humidity 42    
Precipitation  
Precipitation 0.00 in 0.10 in 0.89 in (1959)
Month to date precipitation 0.76  
Year to date precipitation 33.44  
Sea Level Pressure  
Sea Level Pressure 30.28 in    
Wind  
Wind Speed 5 mph (East)    
Max Wind Speed 12 mph    
Max Gust Speed 16 mph    
Visibility 10 miles    
Events      
T = Trace of Precipitation, MM = Missing Value Source: NWS Daily Summary

Daily Weather History Graph

Daily Weather History Graph

Search for Another Location

Airport:

Trip Planner

Search our weather history database for the weather conditions in past years. The results will help you decide how hot, cold, wet, or windy it might be!

Date:

Astronomy

Oct. 08, 2013 Rise Set
Actual Time 7:20 AM EDT 6:48 PM EDT
Civil Twilight 6:53 AM EDT 7:15 PM EDT
Nautical Twilight 6:22 AM EDT 7:46 PM EDT
Astronomical Twilight 5:51 AM EDT 8:17 PM EDT
Moon 11:12 AM EDT (10/8) 9:24 PM EDT (10/8)
Length of Visible Light 12h 21m
Length of Day
11h 27m
Waxing Crescent, 16% of the Moon is Illuminated
Oct 8
Waxing Crescent
Oct 11
First Quarter
Oct 18
Full
Oct 26
Last Quarter
Nov 3
New

Hourly Weather History & Observations

Time (EDT) Temp. Windchill Dew Point Humidity Pressure Visibility Wind Dir Wind Speed Gust Speed Precip Events Conditions
6:45 AM 42.8 °F 40.1 °F 42.8 °F 100% 30.22 in 10.0 mi NNE 4.6 mph - N/A   Overcast
7:05 AM 41.0 °F 39.0 °F 41.0 °F 100% 30.23 in 7.0 mi NNE 3.5 mph - N/A   Mostly Cloudy
7:25 AM 41.0 °F - 41.0 °F 100% 30.24 in 3.0 mi Calm Calm - N/A   Clear
7:45 AM 41.0 °F - 41.0 °F 100% 30.25 in 5.0 mi Calm Calm - N/A   Clear
8:05 AM 41.0 °F - 41.0 °F 100% 30.25 in 7.0 mi Calm Calm - N/A   Clear
8:25 AM 42.8 °F 41.1 °F 42.8 °F 100% 30.27 in 10.0 mi ENE 3.5 mph - N/A   Clear
8:40 AM 42.8 °F 40.1 °F 42.8 °F 100% 30.27 in 10.0 mi ENE 4.6 mph - N/A   Clear
9:05 AM 46.4 °F 44.3 °F 44.6 °F 93% 30.28 in 10.0 mi ENE 4.6 mph - N/A   Clear
9:25 AM 46.4 °F 42.9 °F 44.6 °F 93% 30.29 in 10.0 mi East 6.9 mph - N/A   Clear
9:45 AM 48.2 °F - 42.8 °F 82% 30.29 in 10.0 mi ENE 4.6 mph - N/A   Clear
10:05 AM 50.0 °F - 42.8 °F 76% 30.29 in 10.0 mi East 6.9 mph - N/A   Clear
10:25 AM 50.0 °F - 42.8 °F 76% 30.29 in 10.0 mi East 6.9 mph - N/A   Clear
10:45 AM 51.8 °F - 41.0 °F 67% 30.30 in 10.0 mi East 6.9 mph - N/A   Scattered Clouds
11:05 AM 50.0 °F - 41.0 °F 71% 30.30 in 10.0 mi NE 3.5 mph - N/A   Scattered Clouds
11:25 AM 51.8 °F - 37.4 °F 58% 30.30 in 10.0 mi East 5.8 mph - N/A   Scattered Clouds
11:45 AM 51.8 °F - 41.0 °F 67% 30.30 in 10.0 mi ENE 4.6 mph - N/A   Scattered Clouds
12:05 PM 53.6 °F - 41.0 °F 62% 30.30 in 10.0 mi NE 6.9 mph - N/A   Scattered Clouds
12:25 PM 55.4 °F - 39.2 °F 54% 30.30 in 10.0 mi East 9.2 mph 16.1 mph N/A   Clear
12:45 PM 55.4 °F - 37.4 °F 51% 30.30 in 10.0 mi ENE 4.6 mph - N/A   Clear
1:05 PM 55.4 °F - 37.4 °F 51% 30.29 in 10.0 mi East 8.1 mph - N/A   Clear
1:25 PM 55.4 °F - 37.4 °F 51% 30.29 in 10.0 mi East 5.8 mph - N/A   Clear
1:45 PM 57.2 °F - 39.2 °F 51% 30.29 in 10.0 mi SE 5.8 mph - N/A   Clear
2:05 PM 59.0 °F - 37.4 °F 45% 30.28 in 10.0 mi ENE 4.6 mph - N/A   Clear
2:25 PM 59.0 °F - 39.2 °F 48% 30.28 in 10.0 mi ESE 5.8 mph - N/A   Clear
2:45 PM 57.2 °F - 37.4 °F 48% 30.27 in 10.0 mi ESE 3.5 mph - N/A   Clear
3:05 PM 59.0 °F - 39.2 °F 48% 30.26 in 10.0 mi East 4.6 mph - N/A   Clear
3:25 PM 59.0 °F - 37.4 °F 45% 30.26 in 10.0 mi ENE 4.6 mph - N/A   Clear
3:45 PM 59.0 °F - 37.4 °F 45% 30.27 in 7.0 mi Calm Calm - N/A   Clear
4:05 PM 60.8 °F - 37.4 °F 42% 30.27 in 10.0 mi East 4.6 mph - N/A   Clear
4:25 PM 59.0 °F - 37.4 °F 45% 30.28 in 10.0 mi East 4.6 mph - N/A   Clear
4:45 PM 59.0 °F - 37.4 °F 45% 30.27 in 10.0 mi NE 3.5 mph - N/A   Clear
5:05 PM 59.0 °F - 37.4 °F 45% 30.27 in 10.0 mi NE 3.5 mph - N/A   Clear
5:25 PM 59.0 °F - 37.4 °F 45% 30.27 in 10.0 mi East 4.6 mph - N/A   Clear
5:45 PM 59.0 °F - 37.4 °F 45% 30.27 in 10.0 mi NNE 3.5 mph - N/A   Clear
6:05 PM 55.4 °F - 35.6 °F 47% 30.27 in 10.0 mi NE 3.5 mph - N/A   Clear
6:25 PM 55.4 °F - 35.6 °F 47% 30.28 in 10.0 mi Calm Calm - N/A   Clear
6:45 PM 53.6 °F - 37.4 °F 54% 30.28 in 10.0 mi East 3.5 mph - N/A   Clear
7:05 PM 51.8 °F - 37.4 °F 58% 30.28 in 10.0 mi East 6.9 mph - N/A   Clear
7:25 PM 51.8 °F - 37.4 °F 58% 30.29 in 10.0 mi East 8.1 mph - N/A   Clear
7:45 PM 50.0 °F - 39.2 °F 66% 30.29 in 10.0 mi East 8.1 mph - N/A   Clear
8:05 PM 50.0 °F - 37.4 °F 62% 30.29 in 10.0 mi East 8.1 mph - N/A   Clear
8:25 PM 50.0 °F - 37.4 °F 62% 30.29 in 10.0 mi East 8.1 mph - N/A   Clear
8:45 PM 50.0 °F - 37.4 °F 62% 30.29 in 10.0 mi East 8.1 mph - N/A   Clear
9:05 PM 50.0 °F - 37.4 °F 62% 30.30 in 10.0 mi ESE 8.1 mph - N/A   Clear
9:25 PM 48.2 °F - 37.4 °F 66% 30.30 in 10.0 mi East 10.4 mph - N/A   Clear
9:40 PM 48.2 °F - 37.4 °F 66% 30.30 in 10.0 mi East 10.4 mph - N/A   Clear
10:05 PM 46.4 °F 41.9 °F 37.4 °F 71% 30.30 in 10.0 mi East 9.2 mph - N/A   Clear
10:25 PM 46.4 °F 41.9 °F 39.2 °F 76% 30.30 in 10.0 mi East 9.2 mph - N/A   Clear
10:45 PM 46.4 °F 41.5 °F 39.2 °F 76% 30.30 in 10.0 mi East 10.4 mph - N/A   Clear
11:05 PM 44.6 °F 39.7 °F 39.2 °F 81% 30.30 in 10.0 mi ESE 9.2 mph - N/A   Clear
11:25 PM 46.4 °F 41.9 °F 41.0 °F 81% 30.31 in 10.0 mi ESE 9.2 mph - N/A   Clear
11:45 PM 44.6 °F 38.8 °F 41.0 °F 87% 30.30 in 10.0 mi ESE 11.5 mph - N/A   Clear